Flag for Malaysia Weather past 2 weeks in George Town, Malaysia

Now
79 °F

Partly cloudy.


Feels Like: 83 °F
Forecast: 80 / 90 °F
Wind: 5 mph from North

Location: Penang / Bayan Lepas

Current Time: Apr 2, 2015 at 1:33:23 AM

Latest Report: Apr 2, 2015 at 12:30 AM


Visibility: 6 mi

Pressure: 29.89 "Hg

Humidity: 94%

Dew point: 77 °F

Location of George TownLocation

Historic Weather in George Town — Graph

°F

George Town temperature yesterday

Maximum temperature yesterday: 90 °F (at 3:00 PM)
Minimum temperature yesterday: 77 °F (at 12:00 AM)
Average temperature yesterday: 82 °F

Past Weeks' High & Low Weather Summary

 TemperatureHumidityPressure
High93 °F (Mar 18, 3:30 PM)100% (Mar 21, 9:30 AM)29.95 "Hg (Mar 21, 9:30 AM)
Low75 °F (Mar 25, 2:00 AM)52% (Mar 18, 12:00 PM)29.71 "Hg (Mar 18, 4:30 PM)
Average84 °F79%29.83 "Hg
* Reported Midnight between Mar 17 and Mar 18 — Midnight between Apr 1 and Apr 2, George Town, Weather by CustomWeather, © 2015

Note: Actual official high and low records may vary slightly from our data, if they occured in-between our weather recording intervals... More about our weather records

Advertising

George Town weather history for previous 24 hours

 ConditionsComfort  
Time TempWeatherWind HumidityBarometerVisibility
12:00 AM
Thu, Apr 2
81 °FPartly cloudy.2 mph89%29.89 "Hg6 mi
11:30 PM
Wed, Apr 1
79 °FPartly cloudy.3 mph94%29.89 "Hg6 mi
11:00 PM81 °FPartly cloudy.2 mph89%29.86 "Hg6 mi
10:30 PM81 °FThunderstorms. Partly cloudy.5 mph89%29.86 "Hg6 mi
10:00 PM81 °FThunderstorms. Partly cloudy.7 mph94%29.83 "Hg6 mi
9:30 PM81 °FThunderstorms. Partly cloudy.1 mph94%29.83 "Hg6 mi
9:00 PM81 °FLight rain. Partly cloudy.5 mph94%29.80 "Hg6 mi
8:30 PM79 °FThunderstorms. Partly cloudy.5 mph94%29.80 "Hg4 mi
8:00 PM81 °FThunderstorms. Partly cloudy.3 mph94%29.77 "Hg4 mi
7:30 PM86 °FThunderstorms. Partly cloudy.3 mph75%29.77 "Hg4 mi
7:00 PM86 °FThunderstorms. Broken clouds.3 mph79%29.77 "Hg5 mi
6:30 PM88 °FThunderstorms. Broken clouds.7 mph70%29.74 "Hg5 mi
6:00 PM88 °FThunderstorms. Broken clouds.7 mph75%29.71 "Hg6 mi
5:30 PM90 °FBroken clouds.8 mph67%29.71 "Hg6 mi
5:00 PM90 °FPartly sunny.7 mph71%29.74 "HgN/A
4:30 PM90 °FPartly sunny.8 mph67%29.74 "HgN/A
4:00 PM90 °FPartly sunny.7 mph71%29.74 "HgN/A
3:30 PM90 °FPartly sunny.10 mph71%29.74 "HgN/A
3:00 PM90 °FPartly sunny.12 mph71%29.77 "HgN/A
2:30 PM88 °FBroken clouds.13 mph75%29.80 "HgN/A
2:00 PM88 °FBroken clouds.9 mph75%29.80 "HgN/A
1:30 PM88 °FPartly sunny.8 mph75%29.83 "HgN/A
1:00 PM88 °FPartly sunny.8 mph70%29.86 "HgN/A
12:30 PM88 °FPartly sunny.8 mph70%29.86 "HgN/A
12:00 PM88 °FPartly sunny.6 mph70%29.86 "HgN/A
11:30 AM88 °FPartly sunny.6 mph70%29.86 "HgN/A
11:00 AM86 °FPartly sunny.7 mph75%29.89 "HgN/A
10:30 AM86 °FPartly sunny.5 mph75%29.89 "Hg6 mi
10:00 AM84 °FPartly sunny.2 mph79%29.86 "Hg6 mi
9:30 AM82 °FBroken clouds.3 mph79%29.86 "Hg5 mi
9:00 AM79 °FBroken clouds.3 mph89%29.86 "Hg5 mi
8:30 AM79 °FBroken clouds.3 mph89%29.86 "Hg5 mi
8:00 AM77 °FBroken clouds.3 mph94%29.83 "Hg5 mi
7:30 AM77 °FBroken clouds.2 mph94%29.83 "Hg4 mi
7:00 AM77 °FLight rain. Partly cloudy.No wind100%29.80 "Hg4 mi
6:30 AM77 °FPassing clouds.1 mph100%29.80 "Hg4 mi
6:00 AM77 °FPassing clouds.1 mph100%29.80 "Hg4 mi
5:30 AM77 °FPartly cloudy.2 mph94%29.80 "Hg4 mi
5:00 AM77 °FPartly cloudy.3 mph94%29.80 "Hg5 mi
4:30 AM77 °FPartly cloudy.2 mph94%29.80 "Hg5 mi
4:00 AM77 °FPassing clouds.1 mph100%29.80 "Hg5 mi
3:30 AM77 °FPassing clouds.2 mph94%29.83 "Hg5 mi
3:00 AM77 °FPassing clouds.2 mph94%29.83 "Hg5 mi
2:30 AM77 °FPassing clouds.2 mph94%29.83 "Hg5 mi
2:00 AM77 °FPassing clouds.1 mph94%29.86 "Hg5 mi
1:30 AM77 °FPassing clouds.2 mph94%29.86 "Hg6 mi
1:00 AM77 °FPassing clouds.1 mph94%29.89 "Hg6 mi
Weather by CustomWeather, © 2015

See weather overviewHow to use our weather pages